| time (UTC) | temp F | wind direction | speed MPH | gust MPH | rain 1hr in | rain 24hr in | rain mn in | humidity % | barometer mb |
| 20260510010505 | 38 | 18 | 1.0 | 3.0 | 0.00 | 0.00 | 0.00 | 81 | 1023.7 |
| 20260510010004 | 38 | 21 | 2.0 | 5.0 | 0.00 | 0.00 | 0.00 | 81 | 1023.7 |
| 20260510005504 | 38 | 15 | 2.0 | 5.0 | 0.00 | 0.00 | 0.00 | 80 | 1023.8 |
| 20260510005004 | 38 | 13 | 2.0 | 5.0 | 0.00 | 0.00 | 0.00 | 79 | 1023.7 |
| 20260510004504 | 38 | 19 | 3.0 | 8.0 | 0.00 | 0.00 | 0.00 | 79 | 1023.7 |
| 20260510004004 | 39 | 26 | 3.0 | 8.0 | 0.00 | 0.00 | 0.00 | 78 | 1023.7 |
| 20260510003504 | 39 | 26 | 3.0 | 8.0 | 0.00 | 0.00 | 0.00 | 77 | 1023.7 |
| 20260510003004 | 39 | 25 | 3.0 | 8.0 | 0.00 | 0.00 | 0.00 | 77 | 1023.7 |
| 20260510002004 | 39 | 26 | 3.0 | 11.0 | 0.00 | 0.00 | 0.00 | 76 | 1023.7 |
| 20260510001506 | 39 | 23 | 3.0 | 11.0 | 0.00 | 0.00 | 0.00 | 76 | 1023.6 |
| 20260510001004 | 39 | 15 | 3.0 | 5.0 | 0.00 | 0.00 | 0.00 | 75 | 1023.7 |
| 20260510000506 | 40 | 14 | 3.0 | 9.0 | 0.00 | 0.00 | 0.00 | 75 | 1023.8 |
| 20260510000004 | 40 | 19 | 2.0 | 9.0 | 0.00 | 0.00 | 0.00 | 75 | 1023.7 |
| 20260509235505 | 40 | 22 | 2.0 | 6.0 | 0.00 | 0.00 | 0.00 | 74 | 1023.7 |
| 20260509235003 | 40 | 17 | 3.0 | 6.0 | 0.00 | 0.00 | 0.00 | 74 | 1023.6 |
| 20260509234505 | 40 | 19 | 3.0 | 6.0 | 0.00 | 0.00 | 0.00 | 73 | 1023.6 |
| 20260509234004 | 40 | 24 | 3.0 | 7.0 | 0.00 | 0.00 | 0.00 | 73 | 1023.6 |
| 20260509233504 | 40 | 16 | 3.0 | 10.0 | 0.00 | 0.00 | 0.00 | 72 | 1023.7 |
| 20260509233004 | 40 | 16 | 3.0 | 10.0 | 0.00 | 0.00 | 0.00 | 71 | 1023.6 |
| 20260509232506 | 41 | 23 | 2.0 | 7.0 | 0.00 | 0.00 | 0.00 | 71 | 1023.7 |
| 20260509232004 | 41 | 21 | 3.0 | 9.0 | 0.00 | 0.00 | 0.00 | 70 | 1023.6 |
| 20260509231505 | 41 | 20 | 3.0 | 9.0 | 0.00 | 0.00 | 0.00 | 70 | 1023.7 |
| 20260509230505 | 41 | 22 | 2.0 | 5.0 | 0.00 | 0.00 | 0.00 | 69 | 1023.6 |
| 20260509230004 | 41 | 24 | 2.0 | 5.0 | 0.00 | 0.00 | 0.00 | 69 | 1023.7 |
| 20260509225504 | 41 | 25 | 2.0 | 7.0 | 0.00 | 0.00 | 0.00 | 68 | 1023.7 |
| 20260509225004 | 42 | 26 | 2.0 | 7.0 | 0.00 | 0.00 | 0.00 | 68 | 1023.6 |
| 20260509224004 | 42 | 19 | 3.0 | 7.0 | 0.00 | 0.00 | 0.00 | 67 | 1023.6 |
| 20260509223003 | 42 | 27 | 3.0 | 8.0 | 0.00 | 0.00 | 0.00 | 67 | 1023.6 |
| 20260509222504 | 42 | 27 | 3.0 | 8.0 | 0.00 | 0.00 | 0.00 | 67 | 1023.6 |
| 20260509222003 | 42 | 28 | 3.0 | 9.0 | 0.00 | 0.00 | 0.00 | 68 | 1023.5 |
| 20260509221504 | 42 | 30 | 3.0 | 9.0 | 0.00 | 0.00 | 0.00 | 68 | 1023.5 |
| 20260509221004 | 41 | 28 | 2.0 | 6.0 | 0.00 | 0.00 | 0.00 | 70 | 1023.5 |
| 20260509220505 | 41 | 20 | 2.0 | 5.0 | 0.00 | 0.00 | 0.00 | 71 | 1023.5 |
| 20260509220004 | 41 | 18 | 1.0 | 5.0 | 0.00 | 0.00 | 0.00 | 71 | 1023.5 |
| 20260509215505 | 41 | 15 | 0.0 | 3.0 | 0.00 | 0.00 | 0.00 | 72 | 1023.6 |
| 20260509215006 | 41 | 22 | 1.0 | 3.0 | 0.00 | 0.00 | 0.00 | 72 | 1023.5 |
| 20260509214506 | 42 | 27 | 1.0 | 4.0 | 0.00 | 0.00 | 0.00 | 72 | 1023.6 |
| 20260509213507 | 42 | 25 | 0.0 | 4.0 | 0.00 | 0.00 | 0.00 | 72 | 1023.5 |
| 20260509213006 | 42 | 20 | 0.0 | 2.0 | 0.00 | 0.00 | 0.00 | 73 | 1023.4 |
| 20260509212506 | 42 | 20 | 0.0 | 2.0 | 0.00 | 0.00 | 0.00 | 72 | 1023.4 |
| 20260509212005 | 42 | 24 | 0.0 | 3.0 | 0.00 | 0.00 | 0.00 | 72 | 1023.5 |
| 20260509211507 | 43 | 24 | 1.0 | 3.0 | 0.00 | 0.00 | 0.00 | 71 | 1023.5 |
| 20260509211006 | 43 | 24 | 0.0 | 3.0 | 0.00 | 0.00 | 0.00 | 71 | 1023.4 |
| 20260509210506 | 43 | 0 | 0.0 | 0.0 | 0.00 | 0.00 | 0.00 | 70 | 1023.3 |
| 20260509210005 | 44 | 9 | 0.0 | 1.0 | 0.00 | 0.00 | 0.00 | 70 | 1023.1 |
| 20260509205005 | 44 | 20 | 0.0 | 3.0 | 0.00 | 0.00 | 0.00 | 68 | 1023.1 |
| 20260509204506 | 45 | 26 | 0.0 | 3.0 | 0.00 | 0.00 | 0.00 | 67 | 1023.1 |
| 20260509204005 | 45 | 12 | 1.0 | 3.0 | 0.00 | 0.00 | 0.00 | 66 | 1022.9 |
| 20260509203507 | 46 | 4 | 1.0 | 4.0 | 0.00 | 0.00 | 0.00 | 66 | 1022.8 |
| 20260509203005 | 46 | 15 | 1.0 | 4.0 | 0.00 | 0.00 | 0.00 | 65 | 1022.8 |
| 20260509202506 | 47 | 19 | 1.0 | 5.0 | 0.00 | 0.00 | 0.00 | 64 | 1022.7 |
| 20260509202005 | 47 | 26 | 1.0 | 5.0 | 0.00 | 0.00 | 0.00 | 63 | 1022.8 |
| 20260509200507 | 48 | 28 | 2.0 | 7.0 | 0.00 | 0.00 | 0.00 | 61 | 1022.6 |
| 20260509200006 | 49 | 24 | 2.0 | 8.0 | 0.00 | 0.00 | 0.00 | 60 | 1022.6 |
| 20260509195507 | 49 | 22 | 3.0 | 10.0 | 0.00 | 0.00 | 0.00 | 60 | 1022.6 |
| 20260509194507 | 50 | 25 | 3.0 | 10.0 | 0.00 | 0.00 | 0.00 | 59 | 1022.4 |
| 20260509194005 | 50 | 20 | 3.0 | 9.0 | 0.00 | 0.00 | 0.00 | 58 | 1022.3 |
| 20260509193006 | 51 | 26 | 3.0 | 8.0 | 0.00 | 0.00 | 0.00 | 58 | 1022.2 |
| 20260509192506 | 51 | 26 | 3.0 | 8.0 | 0.00 | 0.00 | 0.00 | 57 | 1022.2 |
| 20260509192006 | 51 | 25 | 3.0 | 8.0 | 0.00 | 0.00 | 0.00 | 57 | 1022.1 |
| 20260509191005 | 52 | 30 | 5.0 | 11.0 | 0.00 | 0.00 | 0.00 | 56 | 1022.0 |
| 20260509185507 | 53 | 28 | 6.0 | 12.0 | 0.00 | 0.00 | 0.00 | 55 | 1022.0 |
| 20260509185005 | 53 | 27 | 5.0 | 11.0 | 0.00 | 0.00 | 0.00 | 54 | 1021.9 |
| 20260509184506 | 53 | 27 | 4.0 | 11.0 | 0.00 | 0.00 | 0.00 | 55 | 1021.8 |
| 20260509184005 | 54 | 28 | 5.0 | 13.0 | 0.00 | 0.00 | 0.00 | 54 | 1021.8 |
| 20260509183507 | 54 | 28 | 5.0 | 13.0 | 0.00 | 0.00 | 0.00 | 53 | 1021.7 |
| 20260509183005 | 54 | 27 | 5.0 | 13.0 | 0.00 | 0.00 | 0.00 | 53 | 1021.6 |
| 20260509182506 | 55 | 27 | 4.0 | 11.0 | 0.00 | 0.00 | 0.00 | 53 | 1021.6 |
| 20260509182005 | 55 | 30 | 5.0 | 13.0 | 0.00 | 0.00 | 0.00 | 54 | 1021.6 |
| 20260509181505 | 55 | 29 | 5.0 | 13.0 | 0.00 | 0.00 | 0.00 | 53 | 1021.5 |
| 20260509181005 | 55 | 26 | 5.0 | 12.0 | 0.00 | 0.00 | 0.00 | 52 | 1021.3 |
| 20260509180506 | 55 | 28 | 6.0 | 14.0 | 0.00 | 0.00 | 0.00 | 51 | 1021.3 |
| 20260509180006 | 56 | 30 | 6.0 | 14.0 | 0.00 | 0.00 | 0.00 | 52 | 1021.3 |
| 20260509175506 | 56 | 31 | 6.0 | 17.0 | 0.00 | 0.00 | 0.00 | 52 | 1021.2 |
| 20260509175005 | 56 | 34 | 7.0 | 17.0 | 0.00 | 0.00 | 0.00 | 51 | 1021.1 |
| 20260509174506 | 56 | 35 | 6.0 | 13.0 | 0.00 | 0.00 | 0.00 | 52 | 1021.2 |
| 20260509174005 | 56 | 31 | 5.0 | 13.0 | 0.00 | 0.00 | 0.00 | 50 | 1021.4 |
| 20260509173506 | 57 | 29 | 5.0 | 12.0 | 0.00 | 0.00 | 0.00 | 51 | 1021.1 |
| 20260509173005 | 57 | 23 | 5.0 | 12.0 | 0.00 | 0.00 | 0.00 | 51 | 1021.1 |
| 20260509172005 | 57 | 35 | 5.0 | 13.0 | 0.00 | 0.00 | 0.00 | 50 | 1021.1 |
| 20260509171506 | 57 | 30 | 5.0 | 11.0 | 0.00 | 0.00 | 0.00 | 52 | 1021.2 |
| 20260509171005 | 57 | 27 | 5.0 | 10.0 | 0.00 | 0.00 | 0.00 | 51 | 1021.1 |
| 20260509170005 | 58 | 31 | 5.0 | 14.0 | 0.00 | 0.00 | 0.00 | 50 | 1021.2 |
| 20260509165506 | 58 | 31 | 5.0 | 15.0 | 0.00 | 0.00 | 0.00 | 50 | 1021.2 |
| 20260509164505 | 58 | 27 | 4.0 | 13.0 | 0.00 | 0.00 | 0.00 | 49 | 1021.2 |
| 20260509164005 | 58 | 27 | 4.0 | 13.0 | 0.00 | 0.00 | 0.00 | 49 | 1021.0 |
| 20260509163506 | 58 | 26 | 5.0 | 14.0 | 0.00 | 0.00 | 0.00 | 50 | 1021.1 |
| 20260509163005 | 59 | 25 | 5.0 | 14.0 | 0.00 | 0.00 | 0.00 | 50 | 1021.0 |
| 20260509162506 | 59 | 30 | 5.0 | 13.0 | 0.00 | 0.00 | 0.00 | 49 | 1021.0 |
| 20260509162005 | 59 | 32 | 5.0 | 13.0 | 0.00 | 0.00 | 0.00 | 48 | 1020.9 |
| 20260509161507 | 59 | 27 | 5.0 | 13.0 | 0.00 | 0.00 | 0.00 | 50 | 1021.1 |
| 20260509160507 | 60 | 32 | 4.0 | 12.0 | 0.00 | 0.00 | 0.00 | 50 | 1021.0 |
| 20260509160005 | 60 | 27 | 3.0 | 10.0 | 0.00 | 0.00 | 0.00 | 51 | 1020.8 |
| 20260509155506 | 60 | 28 | 5.0 | 13.0 | 0.00 | 0.00 | 0.00 | 49 | 1020.9 |
| 20260509155005 | 60 | 31 | 5.0 | 13.0 | 0.00 | 0.00 | 0.00 | 50 | 1020.9 |
| 20260509154506 | 60 | 30 | 5.0 | 13.0 | 0.00 | 0.00 | 0.00 | 49 | 1020.9 |
| 20260509154005 | 60 | 30 | 5.0 | 14.0 | 0.00 | 0.00 | 0.00 | 48 | 1021.0 |
| 20260509153506 | 60 | 28 | 5.0 | 14.0 | 0.00 | 0.00 | 0.00 | 49 | 1021.0 |
| 20260509153005 | 60 | 28 | 4.0 | 11.0 | 0.00 | 0.00 | 0.00 | 49 | 1020.9 |
| 20260509152506 | 60 | 30 | 5.0 | 15.0 | 0.00 | 0.00 | 0.00 | 50 | 1020.7 |
| 20260509152005 | 60 | 30 | 5.0 | 15.0 | 0.00 | 0.00 | 0.00 | 49 | 1020.8 |
| 20260509151506 | 60 | 25 | 3.0 | 11.0 | 0.00 | 0.00 | 0.00 | 50 | 1021.0 |
| 20260509151005 | 59 | 23 | 4.0 | 12.0 | 0.00 | 0.00 | 0.00 | 55 | 1021.0 |
| 20260509150005 | 59 | 24 | 4.0 | 14.0 | 0.00 | 0.00 | 0.00 | 50 | 1021.1 |
| 20260509145505 | 59 | 23 | 3.0 | 12.0 | 0.00 | 0.00 | 0.00 | 51 | 1021.1 |
| 20260509145005 | 59 | 28 | 3.0 | 12.0 | 0.00 | 0.00 | 0.00 | 53 | 1021.1 |
| 20260509144506 | 59 | 32 | 5.0 | 13.0 | 0.00 | 0.00 | 0.00 | 54 | 1021.1 |
| 20260509144005 | 60 | 31 | 4.0 | 14.0 | 0.00 | 0.00 | 0.00 | 50 | 1021.1 |
| 20260509143506 | 60 | 30 | 2.0 | 14.0 | 0.00 | 0.00 | 0.00 | 53 | 1021.1 |
| 20260509143005 | 60 | 29 | 4.0 | 12.0 | 0.00 | 0.00 | 0.00 | 54 | 1021.2 |
| 20260509142506 | 60 | 29 | 5.0 | 13.0 | 0.00 | 0.00 | 0.00 | 54 | 1021.2 |
| 20260509142004 | 60 | 31 | 4.0 | 13.0 | 0.00 | 0.00 | 0.00 | 52 | 1021.3 |
| 20260509141505 | 60 | 29 | 3.0 | 12.0 | 0.00 | 0.00 | 0.00 | 50 | 1021.3 |
| 20260509135506 | 60 | 24 | 2.0 | 11.0 | 0.00 | 0.00 | 0.00 | 53 | 1021.3 |
| 20260509135005 | 60 | 24 | 2.0 | 10.0 | 0.00 | 0.00 | 0.00 | 53 | 1021.3 |
| 20260509134506 | 60 | 26 | 2.0 | 11.0 | 0.00 | 0.00 | 0.00 | 56 | 1021.2 |
| 20260509134005 | 59 | 28 | 4.0 | 13.0 | 0.00 | 0.00 | 0.00 | 53 | 1021.3 |
| 20260509133506 | 59 | 32 | 4.0 | 13.0 | 0.00 | 0.00 | 0.00 | 55 | 1021.2 |
| 20260509133005 | 60 | 28 | 4.0 | 12.0 | 0.00 | 0.00 | 0.00 | 56 | 1021.2 |
| 20260509132507 | 59 | 25 | 3.0 | 10.0 | 0.00 | 0.00 | 0.00 | 54 | 1021.3 |
| 20260509131506 | 59 | 24 | 5.0 | 12.0 | 0.00 | 0.00 | 0.00 | 55 | 1021.3 |
| 20260509131004 | 59 | 27 | 4.0 | 11.0 | 0.00 | 0.00 | 0.00 | 56 | 1021.2 |
| 20260509130506 | 59 | 28 | 5.0 | 12.0 | 0.00 | 0.00 | 0.00 | 55 | 1021.2 |
| 20260509130005 | 59 | 25 | 4.0 | 12.0 | 0.00 | 0.00 | 0.00 | 55 | 1021.3 |
| 20260509125506 | 59 | 24 | 3.0 | 10.0 | 0.00 | 0.00 | 0.00 | 55 | 1021.2 |
| 20260509124505 | 59 | 22 | 3.0 | 9.0 | 0.00 | 0.00 | 0.00 | 56 | 1021.2 |
| 20260509123506 | 59 | 25 | 3.0 | 10.0 | 0.00 | 0.00 | 0.00 | 55 | 1021.3 |
| 20260509123004 | 59 | 27 | 3.0 | 10.0 | 0.00 | 0.00 | 0.00 | 56 | 1021.3 |
| 20260509122506 | 58 | 26 | 3.0 | 9.0 | 0.00 | 0.00 | 0.00 | 57 | 1021.2 |
| 20260509122005 | 58 | 24 | 3.0 | 10.0 | 0.00 | 0.00 | 0.00 | 57 | 1021.4 |
| 20260509121005 | 58 | 30 | 5.0 | 12.0 | 0.00 | 0.00 | 0.00 | 59 | 1021.5 |
| 20260509120505 | 58 | 29 | 6.0 | 12.0 | 0.00 | 0.00 | 0.00 | 55 | 1021.5 |
| 20260509120005 | 58 | 27 | 4.0 | 11.0 | 0.00 | 0.00 | 0.00 | 59 | 1021.5 |
| 20260509114505 | 57 | 28 | 4.0 | 14.0 | 0.00 | 0.00 | 0.00 | 57 | 1021.6 |
| 20260509114005 | 57 | 27 | 4.0 | 14.0 | 0.00 | 0.00 | 0.00 | 58 | 1021.6 |
| 20260509113506 | 57 | 28 | 5.0 | 14.0 | 0.00 | 0.00 | 0.00 | 57 | 1021.6 |
| 20260509113004 | 57 | 27 | 4.0 | 14.0 | 0.00 | 0.00 | 0.00 | 59 | 1021.6 |
| 20260509112506 | 57 | 22 | 3.0 | 9.0 | 0.00 | 0.00 | 0.00 | 58 | 1021.6 |
| 20260509112005 | 57 | 25 | 3.0 | 10.0 | 0.00 | 0.00 | 0.00 | 59 | 1021.7 |
| 20260509111505 | 57 | 22 | 3.0 | 10.0 | 0.00 | 0.00 | 0.00 | 58 | 1021.6 |
| 20260509111005 | 56 | 24 | 3.0 | 10.0 | 0.00 | 0.00 | 0.00 | 61 | 1021.7 |
| 20260509110506 | 56 | 27 | 5.0 | 12.0 | 0.00 | 0.00 | 0.00 | 61 | 1021.7 |
| 20260509110005 | 56 | 25 | 4.0 | 12.0 | 0.00 | 0.00 | 0.00 | 58 | 1021.7 |
| 20260509105505 | 56 | 19 | 3.0 | 9.0 | 0.00 | 0.00 | 0.00 | 61 | 1021.7 |
| 20260509105005 | 56 | 22 | 3.0 | 10.0 | 0.00 | 0.00 | 0.00 | 59 | 1021.7 |
| 20260509104004 | 56 | 25 | 3.0 | 8.0 | 0.00 | 0.00 | 0.00 | 64 | 1021.7 |
| 20260509103505 | 55 | 25 | 3.0 | 11.0 | 0.00 | 0.00 | 0.00 | 62 | 1021.7 |
| 20260509103004 | 55 | 26 | 5.0 | 12.0 | 0.00 | 0.00 | 0.00 | 66 | 1021.8 |
| 20260509102505 | 54 | 29 | 6.0 | 13.0 | 0.00 | 0.00 | 0.00 | 62 | 1021.7 |
| 20260509101505 | 55 | 29 | 6.0 | 13.0 | 0.00 | 0.00 | 0.00 | 64 | 1021.7 |
| 20260509101005 | 54 | 33 | 5.0 | 12.0 | 0.00 | 0.00 | 0.00 | 67 | 1021.7 |
| 20260509100506 | 54 | 29 | 5.0 | 11.0 | 0.00 | 0.00 | 0.00 | 65 | 1021.7 |
| 20260509100005 | 54 | 25 | 5.0 | 11.0 | 0.00 | 0.00 | 0.00 | 67 | 1021.6 |
| 20260509095506 | 54 | 27 | 4.0 | 11.0 | 0.00 | 0.00 | 0.00 | 65 | 1021.6 |
| 20260509095004 | 53 | 29 | 4.0 | 11.0 | 0.00 | 0.00 | 0.00 | 68 | 1021.7 |
| 20260509093505 | 53 | 30 | 6.0 | 14.0 | 0.00 | 0.00 | 0.00 | 66 | 1021.7 |
| 20260509093004 | 53 | 27 | 5.0 | 11.0 | 0.00 | 0.00 | 0.00 | 67 | 1021.6 |
| 20260509091505 | 53 | 23 | 5.0 | 13.0 | 0.00 | 0.00 | 0.00 | 69 | 1021.9 |
| 20260509091004 | 52 | 24 | 4.0 | 13.0 | 0.00 | 0.00 | 0.00 | 70 | 1021.7 |
| 20260509090505 | 53 | 25 | 4.0 | 12.0 | 0.00 | 0.00 | 0.00 | 70 | 1021.8 |
| 20260509090007 | 52 | 25 | 4.0 | 12.0 | 0.00 | 0.00 | 0.00 | 70 | 1021.8 |
| 20260509085005 | 52 | 23 | 4.0 | 12.0 | 0.00 | 0.00 | 0.00 | 71 | 1021.7 |
| 20260509084505 | 51 | 21 | 4.0 | 13.0 | 0.00 | 0.00 | 0.00 | 73 | 1021.8 |
| 20260509084004 | 51 | 21 | 4.0 | 13.0 | 0.00 | 0.00 | 0.00 | 73 | 1021.8 |
| 20260509083505 | 51 | 24 | 4.0 | 11.0 | 0.00 | 0.00 | 0.00 | 73 | 1021.7 |
| 20260509083004 | 50 | 28 | 5.0 | 14.0 | 0.00 | 0.00 | 0.00 | 76 | 1021.8 |
| 20260509082505 | 49 | 27 | 6.0 | 14.0 | 0.00 | 0.00 | 0.00 | 73 | 1021.9 |
| 20260509082005 | 49 | 26 | 5.0 | 14.0 | 0.00 | 0.00 | 0.00 | 75 | 1021.8 |
| 20260509081505 | 49 | 26 | 5.0 | 14.0 | 0.00 | 0.00 | 0.00 | 76 | 1021.9 |
| 20260509081004 | 49 | 29 | 5.0 | 12.0 | 0.00 | 0.00 | 0.00 | 78 | 1021.8 |
| 20260509075505 | 49 | 26 | 4.0 | 10.0 | 0.00 | 0.00 | 0.00 | 78 | 1021.6 |
| 20260509075004 | 48 | 26 | 5.0 | 14.0 | 0.00 | 0.00 | 0.00 | 79 | 1021.6 |
| 20260509074505 | 48 | 26 | 5.0 | 14.0 | 0.00 | 0.00 | 0.00 | 78 | 1021.5 |
| 20260509074004 | 48 | 27 | 4.0 | 13.0 | 0.00 | 0.00 | 0.00 | 79 | 1021.4 |
| 20260509073505 | 48 | 28 | 4.0 | 14.0 | 0.00 | 0.00 | 0.00 | 78 | 1021.5 |
| 20260509073004 | 48 | 28 | 4.0 | 14.0 | 0.00 | 0.00 | 0.00 | 79 | 1021.6 |
| 20260509072506 | 47 | 29 | 4.0 | 12.0 | 0.00 | 0.00 | 0.00 | 81 | 1021.4 |
| 20260509072004 | 47 | 28 | 5.0 | 14.0 | 0.00 | 0.00 | 0.00 | 81 | 1021.3 |
| 20260509071505 | 47 | 29 | 5.0 | 14.0 | 0.00 | 0.00 | 0.00 | 81 | 1021.3 |
| 20260509070005 | 46 | 23 | 4.0 | 10.0 | 0.00 | 0.00 | 0.00 | 84 | 1021.1 |
| 20260509065505 | 46 | 23 | 4.0 | 11.0 | 0.00 | 0.00 | 0.00 | 84 | 1021.1 |
| 20260509065005 | 46 | 24 | 4.0 | 11.0 | 0.00 | 0.00 | 0.00 | 84 | 1021.2 |
| 20260509064505 | 46 | 27 | 4.0 | 9.0 | 0.00 | 0.00 | 0.00 | 85 | 1021.2 |
| 20260509064005 | 45 | 28 | 4.0 | 9.0 | 0.00 | 0.00 | 0.00 | 86 | 1021.1 |
| 20260509063505 | 45 | 24 | 4.0 | 12.0 | 0.00 | 0.00 | 0.00 | 86 | 1021.0 |
| 20260509063004 | 44 | 23 | 4.0 | 12.0 | 0.00 | 0.00 | 0.00 | 86 | 1020.9 |
| 20260509062506 | 45 | 24 | 4.0 | 12.0 | 0.00 | 0.00 | 0.00 | 86 | 1020.8 |
| 20260509061004 | 44 | 24 | 3.0 | 8.0 | 0.00 | 0.00 | 0.00 | 89 | 1020.9 |
| 20260509060505 | 44 | 28 | 3.0 | 9.0 | 0.00 | 0.00 | 0.00 | 89 | 1020.9 |
| 20260509060005 | 44 | 30 | 2.0 | 9.0 | 0.00 | 0.00 | 0.00 | 89 | 1020.8 |
| 20260509055505 | 44 | 26 | 2.0 | 5.0 | 0.00 | 0.00 | 0.00 | 90 | 1020.8 |
| 20260509053505 | 42 | 18 | 2.0 | 5.0 | 0.00 | 0.00 | 0.00 | 91 | 1020.6 |
| 20260509053004 | 42 | 14 | 2.0 | 5.0 | 0.00 | 0.00 | 0.00 | 92 | 1020.6 |
| 20260509052505 | 42 | 16 | 2.0 | 5.0 | 0.00 | 0.00 | 0.00 | 92 | 1020.5 |
| 20260509052004 | 41 | 17 | 2.0 | 5.0 | 0.00 | 0.00 | 0.00 | 92 | 1020.4 |
| 20260509051505 | 41 | 16 | 2.0 | 5.0 | 0.00 | 0.00 | 0.00 | 92 | 1020.4 |
| 20260509051004 | 41 | 21 | 2.0 | 5.0 | 0.00 | 0.00 | 0.00 | 92 | 1020.4 |
| 20260509050505 | 41 | 19 | 2.0 | 5.0 | 0.00 | 0.00 | 0.00 | 92 | 1020.3 |
| 20260509050004 | 41 | 13 | 2.0 | 5.0 | 0.00 | 0.00 | 0.00 | 92 | 1020.3 |
| 20260509045505 | 41 | 16 | 2.0 | 5.0 | 0.00 | 0.00 | 0.00 | 92 | 1020.3 |
| 20260509045004 | 41 | 19 | 2.0 | 4.0 | 0.00 | 0.00 | 0.00 | 92 | 1020.3 |
| 20260509044505 | 41 | 21 | 2.0 | 5.0 | 0.00 | 0.00 | 0.00 | 92 | 1020.3 |
| 20260509044005 | 41 | 24 | 2.0 | 5.0 | 0.00 | 0.00 | 0.00 | 92 | 1020.2 |
| 20260509043505 | 41 | 27 | 2.0 | 4.0 | 0.00 | 0.00 | 0.00 | 92 | 1020.2 |
| 20260509042004 | 41 | 19 | 1.0 | 4.0 | 0.00 | 0.00 | 0.00 | 92 | 1020.1 |
| 20260509041504 | 41 | 16 | 1.0 | 4.0 | 0.00 | 0.00 | 0.00 | 92 | 1020.1 |
| 20260509041004 | 41 | 20 | 1.0 | 3.0 | 0.00 | 0.00 | 0.00 | 92 | 1020.2 |
| 20260509040005 | 41 | 1 | 0.0 | 3.0 | 0.00 | 0.00 | 0.00 | 91 | 1020.0 |
| 20260509035505 | 41 | 3 | 0.0 | 3.0 | 0.00 | 0.00 | 0.00 | 91 | 1020.1 |
| 20260509035004 | 41 | 14 | 0.0 | 2.0 | 0.00 | 0.00 | 0.00 | 91 | 1020.1 |
| 20260509034504 | 41 | 18 | 0.0 | 2.0 | 0.00 | 0.00 | 0.00 | 91 | 1020.2 |
| 20260509034004 | 41 | 20 | 0.0 | 3.0 | 0.00 | 0.00 | 0.00 | 91 | 1020.1 |
| 20260509033505 | 42 | 21 | 1.0 | 3.0 | 0.00 | 0.00 | 0.00 | 92 | 1020.1 |
| 20260509033004 | 42 | 24 | 1.0 | 3.0 | 0.00 | 0.00 | 0.00 | 92 | 1020.1 |
| 20260509032505 | 42 | 26 | 1.0 | 3.0 | 0.00 | 0.00 | 0.00 | 92 | 1020.1 |
| 20260509032003 | 42 | 0 | 0.0 | 0.0 | 0.00 | 0.00 | 0.00 | 92 | 1020.1 |
| 20260509031505 | 42 | 0 | 0.0 | 0.0 | 0.00 | 0.00 | 0.00 | 92 | 1019.9 |
| 20260509031004 | 42 | 35 | 0.0 | 3.0 | 0.00 | 0.00 | 0.00 | 92 | 1020.0 |
| 20260509030004 | 42 | 12 | 0.0 | 3.0 | 0.00 | 0.00 | 0.00 | 93 | 1019.9 |
| 20260509025004 | 42 | 16 | 0.0 | 1.0 | 0.00 | 0.00 | 0.00 | 92 | 1019.8 |
| 20260509024004 | 42 | 0 | 0.0 | 0.0 | 0.00 | 0.00 | 0.00 | 91 | 1019.9 |
| 20260509023004 | 42 | 0 | 0.0 | 0.0 | 0.00 | 0.00 | 0.00 | 91 | 1019.9 |
| 20260509022504 | 42 | 0 | 0.0 | 0.0 | 0.00 | 0.00 | 0.00 | 91 | 1019.9 |
| 20260509022003 | 42 | 0 | 0.0 | 0.0 | 0.00 | 0.00 | 0.00 | 91 | 1019.9 |
| 20260509021504 | 42 | 15 | 0.0 | 1.0 | 0.00 | 0.00 | 0.00 | 91 | 1020.0 |
| 20260509021004 | 42 | 15 | 0.0 | 2.0 | 0.00 | 0.00 | 0.00 | 92 | 1019.9 |
| 20260509020004 | 42 | 19 | 0.0 | 3.0 | 0.00 | 0.00 | 0.00 | 92 | 1020.0 |
| 20260509015505 | 42 | 23 | 0.0 | 1.0 | 0.00 | 0.00 | 0.00 | 91 | 1020.1 |
| 20260509015004 | 42 | 23 | 0.0 | 2.0 | 0.00 | 0.00 | 0.00 | 91 | 1020.0 |
| 20260509014505 | 42 | 27 | 0.0 | 2.0 | 0.00 | 0.00 | 0.00 | 91 | 1020.0 |
| 20260509014004 | 42 | 27 | 0.0 | 4.0 | 0.00 | 0.00 | 0.00 | 90 | 1020.0 |
| 20260509013504 | 42 | 23 | 1.0 | 4.0 | 0.00 | 0.00 | 0.00 | 90 | 1019.9 |
| 20260509013004 | 42 | 16 | 1.0 | 3.0 | 0.00 | 0.00 | 0.00 | 90 | 1019.8 |
| 20260509012505 | 42 | 21 | 1.0 | 3.0 | 0.00 | 0.00 | 0.00 | 90 | 1019.8 |
| 20260509012004 | 43 | 16 | 1.0 | 4.0 | 0.00 | 0.00 | 0.00 | 90 | 1019.8 |
| 20260509011505 | 43 | 11 | 1.0 | 4.0 | 0.00 | 0.00 | 0.00 | 90 | 1019.7 |